KC5DAQ-29 Weather Reports


time (UTC)temp
C
wind
direction
speed
KPH
gust
KPH
rain 1hr
cm
rain 24hr
cm
rain mn
cm
humidity
%
barometer
mb
20260505125004 23 199 0.0 8.0 0.00 0.00 0.00 100 1006.3
20260505124902 23 140 0.0 8.0 0.00 0.00 0.00 100 1006.3
20260505124804 23 140 0.0 8.0 0.00 0.00 0.00 100 1006.4
20260505124702 23 171 3.2 8.0 0.00 0.00 0.00 100 1006.4
20260505124604 23 171 4.8 8.0 0.00 0.00 0.00 100 1006.4
20260505124504 23 130 1.6 8.0 0.00 0.00 0.00 100 1006.4
20260505124403 23 173 1.6 8.0 0.00 0.00 0.00 100 1006.3
20260505124303 23 178 1.6 8.0 0.00 0.00 0.00 100 1006.3
20260505124204 23 164 1.6 8.0 0.00 0.00 0.00 100 1006.4
20260505124102 23 203 1.6 8.0 0.00 0.00 0.00 100 1006.2
20260505124004 23 159 0.0 8.0 0.00 0.00 0.00 100 1006.3
20260505123903 23 141 1.6 8.0 0.00 0.00 0.00 100 1006.3
20260505123804 23 140 1.6 8.0 0.00 0.00 0.00 100 1006.3
20260505123703 23 154 1.6 4.8 0.00 0.00 0.00 100 1006.4
20260505123603 23 171 1.6 4.8 0.00 0.00 0.00 100 1006.4
20260505123503 23 149 1.6 4.8 0.00 0.00 0.00 100 1006.5
20260505123404 23 162 0.0 4.8 0.00 0.00 0.00 100 1006.5
20260505123301 23 162 0.0 4.8 0.00 0.00 0.00 100 1006.5
20260505123203 23 162 0.0 4.8 0.00 0.00 0.00 100 1006.6
20260505123103 23 162 1.6 6.4 0.00 0.00 0.00 100 1006.4
20260505123003 23 162 1.6 6.4 0.00 0.00 0.00 100 1006.5
20260505122902 23 203 1.6 8.0 0.00 0.00 0.00 100 1006.4
20260505122803 23 162 0.0 9.7 0.00 0.00 0.00 100 1006.4
20260505122703 23 155 0.0 9.7 0.00 0.00 0.00 100 1006.2
20260505122603 23 155 1.6 9.7 0.00 0.00 0.00 100 1006.2
20260505122503 23 154 1.6 11.3 0.00 0.00 0.00 100 1006.2
20260505122402 23 206 1.6 11.3 0.00 0.00 0.00 100 1006.2
20260505122305 23 159 3.2 11.3 0.00 0.00 0.00 100 1006.2
20260505122203 23 158 3.2 11.3 0.00 0.00 0.00 100 1006.2
20260505122102 23 152 3.2 11.3 0.00 0.00 0.00 100 1006.1
20260505122003 23 149 4.8 11.3 0.00 0.00 0.00 100 1006.1
20260505121902 23 212 4.8 11.3 0.00 0.00 0.00 100 1006.0
20260505121803 23 159 3.2 11.3 0.00 0.00 0.00 100 1006.1
20260505121701 23 176 4.8 11.3 0.00 0.00 0.00 100 1006.1
20260505121604 23 200 4.8 11.3 0.00 0.00 0.00 100 1006.1
20260505121503 23 200 3.2 4.8 0.00 0.00 0.00 100 1006.1
20260505121402 23 207 1.6 6.4 0.00 0.00 0.00 100 1006.0
20260505121303 23 200 3.2 6.4 0.00 0.00 0.00 100 1006.1
20260505121203 23 130 3.2 6.4 0.00 0.00 0.00 100 1006.0
20260505121102 23 173 1.6 6.4 0.00 0.00 0.00 100 1006.0
20260505121003 23 155 1.6 6.4 0.00 0.00 0.00 100 1006.0
20260505120902 23 172 1.6 6.4 0.00 0.00 0.00 100 1006.0
20260505120802 23 168 1.6 6.4 0.00 0.00 0.00 100 1006.0
20260505120703 23 164 1.6 6.4 0.00 0.00 0.00 100 1006.0
20260505120603 23 176 3.2 6.4 0.00 0.00 0.00 100 1006.0
20260505120503 23 173 4.8 6.4 0.00 0.00 0.00 100 1006.0
20260505120403 23 175 1.6 6.4 0.00 0.00 0.00 100 1006.0
20260505120302 23 209 3.2 6.4 0.00 0.00 0.00 100 1006.0
20260505120203 23 209 3.2 6.4 0.00 0.00 0.00 100 1005.9
20260505120103 23 209 3.2 6.4 0.00 0.00 0.00 100 1005.8
20260505120004 23 209 3.2 6.4 0.00 0.00 0.00 100 1005.9
20260505115903 23 209 3.2 6.4 0.00 0.00 0.00 100 1005.8
20260505115803 23 209 3.2 6.4 0.00 0.00 0.00 100 1006.0
20260505115703 23 209 3.2 6.4 0.00 0.00 0.00 100 1006.0
20260505115603 23 209 3.2 6.4 0.00 0.00 0.00 100 1006.1
20260505115504 23 228 3.2 4.8 0.00 0.00 0.00 100 1006.2
20260505115403 23 183 1.6 4.8 0.00 0.00 0.00 100 1006.2
20260505115305 23 165 0.0 4.8 0.00 0.00 0.00 100 1006.1
20260505115202 23 166 0.0 4.8 0.00 0.00 0.00 100 1006.2
20260505115104 23 203 0.0 6.4 0.00 0.00 0.00 100 1006.2
20260505115004 23 203 0.0 6.4 0.00 0.00 0.00 100 1006.2
20260505114903 23 152 1.6 6.4 0.00 0.00 0.00 100 1006.1
20260505114803 23 158 3.2 6.4 0.00 0.00 0.00 100 1006.1
20260505114702 23 157 3.2 6.4 0.00 0.00 0.00 100 1006.1
20260505114603 23 216 1.6 11.3 0.00 0.00 0.00 100 1006.1
20260505114502 23 176 1.6 11.3 0.00 0.00 0.00 100 1006.2
20260505114403 23 168 3.2 11.3 0.00 0.00 0.00 100 1006.2
20260505114302 23 213 1.6 11.3 0.00 0.00 0.00 100 1006.2
20260505114202 23 183 1.6 11.3 0.00 0.00 0.00 100 1006.2
20260505114102 23 176 0.0 11.3 0.00 0.00 0.00 100 1006.2
20260505114003 23 179 1.6 11.3 0.00 0.00 0.00 100 1006.2
20260505113904 23 180 0.0 11.3 0.00 0.00 0.00 100 1006.2
20260505113804 23 202 3.2 11.3 0.00 0.00 0.00 100 1006.1
20260505113703 23 193 3.2 11.3 0.00 0.00 0.00 100 1006.2
20260505113602 23 173 0.0 6.4 0.00 0.00 0.00 100 1006.0
20260505113502 23 157 1.6 6.4 0.00 0.00 0.00 100 1006.0
20260505113403 23 152 1.6 6.4 0.00 0.00 0.00 100 1006.0
20260505113303 23 162 1.6 6.4 0.00 0.00 0.00 100 1006.0
20260505113203 23 155 1.6 11.3 0.00 0.00 0.00 100 1005.9
20260505113103 23 173 3.2 11.3 0.00 0.00 0.00 100 1005.9
20260505113002 23 171 1.6 11.3 0.00 0.00 0.00 100 1006.0
20260505112903 23 152 1.6 11.3 0.00 0.00 0.00 100 1005.8
20260505112802 23 195 3.2 11.3 0.00 0.00 0.00 100 1005.8
20260505112703 23 159 3.2 11.3 0.00 0.00 0.00 100 1005.8
20260505112603 23 169 3.2 11.3 0.00 0.00 0.00 100 1005.7
20260505112504 23 168 3.2 11.3 0.00 0.00 0.00 100 1005.8
20260505112402 23 158 3.2 11.3 0.00 0.00 0.00 100 1005.9
20260505112305 23 157 3.2 11.3 0.00 0.00 0.00 100 1005.9
20260505112203 23 159 1.6 11.3 0.00 0.00 0.00 100 1005.9
20260505112104 23 155 3.2 11.3 0.00 0.00 0.00 100 1005.9
20260505112004 23 166 3.2 11.3 0.00 0.00 0.00 100 1005.8
20260505111903 23 175 1.6 11.3 0.00 0.00 0.00 100 1005.9
20260505111801 23 183 3.2 11.3 0.00 0.00 0.00 100 1005.9
20260505111703 23 216 1.6 11.3 0.00 0.00 0.00 100 1005.9
20260505111602 23 227 1.6 11.3 0.00 0.00 0.00 100 1006.0
20260505111503 23 164 1.6 11.3 0.00 0.00 0.00 100 1005.9
20260505111403 23 182 3.2 11.3 0.00 0.00 0.00 100 1005.9
20260505111302 23 204 3.2 11.3 0.00 0.00 0.00 100 1005.9
20260505111203 23 147 1.6 8.0 0.00 0.00 0.00 100 1005.9
20260505111103 23 220 3.2 8.0 0.00 0.00 0.00 100 1005.9
20260505111005 23 162 3.2 8.0 0.00 0.00 0.00 100 1005.8
20260505110903 23 206 3.2 6.4 0.00 0.00 0.00 100 1005.8
20260505110802 23 202 3.2 3.2 0.00 0.00 0.00 100 1005.8
20260505110704 -17 0.0 0.0 0.00 0.00 0.00 1005.8
20260505110604 -17 0.0 0.0 0.00 0.00 0.00 1005.8
20260505110503 22 149 0.0 1.6 0.00 0.00 0.00 100 1005.9
20260505110403 22 149 0.0 1.6 0.00 0.00 0.00 100 1005.9
20260505110303 22 149 0.0 3.2 0.00 0.00 0.00 100 1005.9
20260505110203 22 149 0.0 3.2 0.00 0.00 0.00 100 1005.9
20260505102203 23 178 0.0 6.4 0.00 0.00 0.00 100 1005.9
20260505102104 23 178 1.6 6.4 0.00 0.00 0.00 100 1005.9
20260505102002 23 176 1.6 6.4 0.00 0.00 0.00 100 1005.9
20260505101904 23 162 1.6 6.4 0.00 0.00 0.00 100 1005.9
20260505101802 22 165 3.2 6.4 0.00 0.00 0.00 100 1005.9
20260505101704 22 162 3.2 6.4 0.00 0.00 0.00 100 1005.9
20260505101603 22 154 1.6 6.4 0.00 0.00 0.00 100 1005.9
20260505101503 22 154 1.6 6.4 0.00 0.00 0.00 100 1005.9
20260505101403 22 151 1.6 6.4 0.00 0.00 0.00 100 1006.0
20260505101303 22 221 3.2 6.4 0.00 0.00 0.00 100 1006.0
20260505101203 22 161 3.2 6.4 0.00 0.00 0.00 100 1006.0
20260505101103 22 157 3.2 6.4 0.00 0.00 0.00 100 1006.0
20260505101004 22 179 1.6 6.4 0.00 0.00 0.00 100 1006.0
20260505100902 22 189 0.0 6.4 0.00 0.00 0.00 100 1006.0
20260505100803 22 145 0.0 6.4 0.00 0.00 0.00 100 1006.1
20260505100704 22 173 0.0 6.4 0.00 0.00 0.00 100 1006.1
20260505100603 22 173 1.6 6.4 0.00 0.00 0.00 100 1006.1
20260505100504 22 173 3.2 6.4 0.00 0.00 0.00 100 1006.0
20260505100402 22 212 1.6 4.8 0.00 0.00 0.00 100 1006.0
20260505100303 22 159 1.6 4.8 0.00 0.00 0.00 100 1006.0
20260505100203 22 186 1.6 4.8 0.00 0.00 0.00 100 1005.9
20260505100004 22 189 1.6 4.8 0.00 0.00 0.00 100 1006.0
20260505095901 22 180 1.6 4.8 0.00 0.00 0.00 100 1005.9
20260505095802 22 210 1.6 4.8 0.00 0.00 0.00 100 1005.9
20260505095703 22 183 0.0 4.8 0.00 0.00 0.00 100 1005.9
20260505095604 22 219 1.6 4.8 0.00 0.00 0.00 100 1005.8
20260505095502 22 161 1.6 8.0 0.00 0.00 0.00 100 1005.9
20260505095403 22 158 1.6 8.0 0.00 0.00 0.00 100 1005.9
20260505095304 22 161 3.2 8.0 0.00 0.00 0.00 100 1005.9
20260505095202 22 171 1.6 8.0 0.00 0.00 0.00 100 1006.0
20260505095102 22 155 0.0 8.0 0.00 0.00 0.00 100 1006.0
20260505095003 22 164 0.0 8.0 0.00 0.00 0.00 100 1006.0
20260505094904 22 162 0.0 8.0 0.00 0.00 0.00 100 1006.1
20260505094804 22 162 3.2 8.0 0.00 0.00 0.00 100 1006.0
20260505094703 22 162 3.2 8.0 0.00 0.00 0.00 100 1006.1
20260505094603 22 133 3.2 8.0 0.00 0.00 0.00 100 1006.1
20260505094504 22 185 0.0 6.4 0.00 0.00 0.00 100 1006.1
20260505094404 22 192 0.0 6.4 0.00 0.00 0.00 100 1006.2
20260505094303 22 155 1.6 6.4 0.00 0.00 0.00 100 1006.2
20260505094203 22 154 1.6 6.4 0.00 0.00 0.00 100 1006.2
20260505094104 22 165 1.6 6.4 0.00 0.00 0.00 100 1006.2
20260505094002 22 164 3.2 6.4 0.00 0.00 0.00 100 1006.2
20260505093903 22 169 3.2 6.4 0.00 0.00 0.00 100 1006.2
20260505093802 22 164 1.6 4.8 0.00 0.00 0.00 100 1006.2
20260505093702 22 164 1.6 4.8 0.00 0.00 0.00 100 1006.1
20260505093603 22 166 1.6 4.8 0.00 0.00 0.00 100 1006.1
20260505093504 22 171 0.0 4.8 0.00 0.00 0.00 100 1006.1
20260505093402 22 171 0.0 4.8 0.00 0.00 0.00 100 1006.2
20260505093302 22 165 0.0 4.8 0.00 0.00 0.00 100 1006.2
20260505093203 22 157 0.0 4.8 0.00 0.00 0.00 100 1006.1
20260505093103 22 157 0.0 4.8 0.00 0.00 0.00 100 1006.1
20260505093004 22 157 0.0 4.8 0.00 0.00 0.00 100 1006.1
20260505092902 22 152 1.6 4.8 0.00 0.00 0.00 100 1006.1
20260505092805 22 152 1.6 4.8 0.00 0.00 0.00 100 1006.1
20260505092703 22 162 0.0 4.8 0.00 0.00 0.00 100 1006.1
20260505092603 22 157 0.0 4.8 0.00 0.00 0.00 100 1006.1
20260505092502 22 157 3.2 4.8 0.00 0.00 0.00 100 1006.0
20260505092403 22 157 1.6 4.8 0.00 0.00 0.00 100 1006.1
20260505092305 22 157 1.6 3.2 0.00 0.00 0.00 100 1006.2
20260505092204 22 162 0.0 3.2 0.00 0.00 0.00 100 1006.1
20260505092102 22 162 1.6 3.2 0.00 0.00 0.00 100 1006.1
20260505092003 22 165 1.6 3.2 0.00 0.00 0.00 100 1006.1
20260505091902 22 171 1.6 3.2 0.00 0.00 0.00 100 1006.2
20260505091802 22 176 0.0 1.6 0.00 0.00 0.00 100 1006.2
20260505091703 22 176 0.0 1.6 0.00 0.00 0.00 100 1006.2
20260505091602 22 180 0.0 1.6 0.00 0.00 0.00 100 1006.2
20260505091502 22 180 1.6 1.6 0.00 0.00 0.00 100 1006.2
20260505091403 22 182 0.0 1.6 0.00 0.00 0.00 100 1006.2
20260505091303 22 182 0.0 4.8 0.00 0.00 0.00 100 1006.2
20260505091202 22 182 0.0 6.4 0.00 0.00 0.00 100 1006.2
20260505091103 22 182 0.0 8.0 0.00 0.00 0.00 100 1006.1
20260505091003 22 182 0.0 8.0 0.00 0.00 0.00 100 1006.2
20260505090903 22 182 0.0 8.0 0.00 0.00 0.00 100 1006.2
20260505090802 22 182 0.0 8.0 0.00 0.00 0.00 100 1006.3
20260505090703 22 182 0.0 8.0 0.00 0.00 0.00 100 1006.2
20260505090603 22 182 0.0 8.0 0.00 0.00 0.00 100 1006.3
20260505090503 22 182 1.6 8.0 0.00 0.00 0.00 100 1006.3
20260505090403 22 182 3.2 8.0 0.00 0.00 0.00 100 1006.3
20260505090302 22 192 3.2 8.0 0.00 0.00 0.00 100 1006.4
20260505090203 22 149 1.6 8.0 0.00 0.00 0.00 100 1006.4
20260505090004 22 159 0.0 0.0 0.00 0.00 0.00 100 1006.4
20260505085904 21 159 0.0 0.0 0.00 0.00 0.00 100 1006.4
20260505085803 21 159 0.0 0.0 0.00 0.00 0.00 100 1006.3
20260505085703 21 159 0.0 0.0 0.00 0.00 0.00 100 1006.3
20260505085603 21 159 0.0 0.0 0.00 0.00 0.00 100 1006.3
20260505085505 21 159 0.0 0.0 0.00 0.00 0.00 100 1006.4
20260505085403 21 159 0.0 0.0 0.00 0.00 0.00 100 1006.4
20260505085304 21 158 0.0 1.6 0.00 0.00 0.00 100 1006.3
20260505085202 21 158 0.0 4.8 0.00 0.00 0.00 100 1006.3
20260505085102 21 159 0.0 4.8 0.00 0.00 0.00 100 1006.4
20260505085004 21 159 0.0 4.8 0.00 0.00 0.00 100 1006.3
20260505084902 21 159 0.0 4.8 0.00 0.00 0.00 100 1006.3
20260505084802 22 159 0.0 4.8 0.00 0.00 0.00 100 1006.4
20260505084704 21 159 0.0 4.8 0.00 0.00 0.00 100 1006.3
20260505084602 21 159 0.0 4.8 0.00 0.00 0.00 100 1006.3
20260505084503 22 159 0.0 4.8 0.00 0.00 0.00 100 1006.3
20260505084402 22 159 1.6 4.8 0.00 0.00 0.00 100 1006.3
20260505084302 21 158 1.6 4.8 0.00 0.00 0.00 100 1006.3
20260505084202 21 190 0.0 3.2 0.00 0.00 0.00 100 1006.3
20260505084103 21 190 0.0 3.2 0.00 0.00 0.00 100 1006.3
20260505084003 21 190 0.0 3.2 0.00 0.00 0.00 100 1006.3
20260505083903 21 193 0.0 3.2 0.00 0.00 0.00 100 1006.3
20260505083803 21 197 0.0 3.2 0.00 0.00 0.00 100 1006.3
20260505083703 21 199 0.0 3.2 0.00 0.00 0.00 100 1006.4
20260505083603 21 213 0.0 3.2 0.00 0.00 0.00 100 1006.4
20260505083504 21 213 0.0 3.2 0.00 0.00 0.00 100 1006.4
20260505083403 21 213 1.6 3.2 0.00 0.00 0.00 100 1006.4
20260505083303 21 166 0.0 3.2 0.00 0.00 0.00 100 1006.5
20260505083203 21 165 0.0 3.2 0.00 0.00 0.00 100 1006.5
20260505083103 21 165 0.0 3.2 0.00 0.00 0.00 100 1006.4
20260505083003 21 165 1.6 3.2 0.00 0.00 0.00 100 1006.4
20260505082903 21 165 1.6 3.2 0.00 0.00 0.00 100 1006.3
20260505082803 21 165 0.0 3.2 0.00 0.00 0.00 100 1006.3
20260505082703 21 166 0.0 3.2 0.00 0.00 0.00 100 1006.4
20260505082603 21 166 0.0 3.2 0.00 0.00 0.00 100 1006.4
20260505082502 21 166 0.0 1.6 0.00 0.00 0.00 100 1006.5
20260505082402 21 166 0.0 0.0 0.00 0.00 0.00 100 1006.5
20260505082304 -17 0.0 0.0 0.00 0.00 0.00 1006.5
20260505082203 -17 164 0.0 1.6 0.00 0.00 0.00 1006.5
20260505082103 -17 164 0.0 1.6 0.00 0.00 0.00 1006.5
20260505082004 21 164 0.0 1.6 0.00 0.00 0.00 100 1006.5
20260505081903 21 164 0.0 1.6 0.00 0.00 0.00 100 1006.6
20260505081803 21 164 0.0 1.6 0.00 0.00 0.00 100 1006.5
20260505081703 21 164 0.0 1.6 0.00 0.00 0.00 100 1006.5
20260505081604 21 164 0.0 1.6 0.00 0.00 0.00 100 1006.6
20260505081503 21 164 0.0 1.6 0.00 0.00 0.00 100 1006.6
20260505081332 21 164 0.0 4.8 0.00 0.00 0.00 100 1006.6
20260505081232 21 164 0.0 4.8 0.00 0.00 0.00 100 1006.6
20260505081132 21 164 0.0 4.8 0.00 0.00 0.00 100 1006.6
20260505081032 21 148 0.0 4.8 0.00 0.00 0.00 100 1006.7
20260505080932 21 148 0.0 4.8 0.00 0.00 0.00 100 1006.6
20260505080830 21 148 0.0 4.8 0.00 0.00 0.00 100 1006.7
20260505080733 21 147 0.0 4.8 0.00 0.00 0.00 100 1006.6
20260505080633 21 147 0.0 4.8 0.00 0.00 0.00 100 1006.6
20260505080533 21 147 1.6 4.8 0.00 0.00 0.00 100 1006.6
20260505080433 21 147 0.0 4.8 0.00 0.00 0.00 100 1006.6
20260505080332 21 169 0.0 4.8 0.00 0.00 0.00 100 1006.6
20260505080231 21 169 0.0 4.8 0.00 0.00 0.00 100 1006.6
20260505080129 21 169 1.6 4.8 0.00 0.00 0.00 100 1006.6
20260505080020 21 168 1.6 4.8 0.00 0.00 0.00 100 1006.6
20260505075919 21 165 0.0 3.2 0.00 0.00 0.00 100 1006.6
20260505075821 21 165 0.0 3.2 0.00 0.00 0.00 100 1006.6
20260505075720 21 165 0.0 3.2 0.00 0.00 0.00 100 1006.6
20260505075619 21 166 1.6 3.2 0.00 0.00 0.00 100 1006.6
20260505075520 21 165 0.0 3.2 0.00 0.00 0.00 100 1006.5
20260505075418 21 165 0.0 1.6 0.00 0.00 0.00 100 1006.6
20260505075317 21 168 0.0 1.6 0.00 0.00 0.00 100 1006.7
20260505075204 21 168 1.6 1.6 0.00 0.00 0.00 100 1006.6
20260505075102 21 168 0.0 3.2 0.00 0.00 0.00 100 1006.7
20260505075005 21 168 0.0 3.2 0.00 0.00 0.00 100 1006.7
20260505074903 21 168 0.0 3.2 0.00 0.00 0.00 100 1006.7
20260505074802 21 168 0.0 3.2 0.00 0.00 0.00 100 1006.7
20260505074703 21 168 0.0 3.2 0.00 0.00 0.00 100 1006.7
20260505074601 21 168 0.0 3.2 0.00 0.00 0.00 100 1006.8
20260505074503 21 168 0.0 3.2 0.00 0.00 0.00 100 1006.8
20260505074402 21 168 0.0 3.2 0.00 0.00 0.00 100 1006.8
20260505074302 21 168 0.0 3.2 0.00 0.00 0.00 100 1006.8
20260505074202 21 169 0.0 3.2 0.00 0.00 0.00 100 1006.8
20260505074102 21 183 0.0 3.2 0.00 0.00 0.00 100 1006.8
20260505074004 21 183 0.0 3.2 0.00 0.00 0.00 100 1006.8
20260505073903 21 183 0.0 3.2 0.00 0.00 0.00 100 1006.8
20260505073803 21 183 0.0 3.2 0.00 0.00 0.00 100 1006.8
20260505073703 21 176 0.0 3.2 0.00 0.00 0.00 100 1006.7
20260505073603 21 175 0.0 3.2 0.00 0.00 0.00 100 1006.8
20260505073503 21 176 0.0 3.2 0.00 0.00 0.00 100 1006.8
20260505073403 21 176 0.0 3.2 0.00 0.00 0.00 100 1006.8
20260505073304 21 175 0.0 3.2 0.00 0.00 0.00 100 1006.8
20260505073203 21 203 0.0 3.2 0.00 0.00 0.00 100 1006.9
20260505073102 21 203 0.0 3.2 0.00 0.00 0.00 100 1006.9
20260505073004 21 203 0.0 3.2 0.00 0.00 0.00 100 1006.9
20260505072903 21 204 0.0 3.2 0.00 0.00 0.00 100 1006.9
20260505072803 21 190 0.0 3.2 0.00 0.00 0.00 100 1006.9
20260505072702 21 190 0.0 3.2 0.00 0.00 0.00 100 1006.9
20260505072603 21 190 0.0 1.6 0.00 0.00 0.00 100 1007.0
20260505072501 21 190 0.0 1.6 0.00 0.00 0.00 100 1007.0
20260505072402 21 193 0.0 1.6 0.00 0.00 0.00 100 1006.9
20260505072305 21 193 0.0 1.6 0.00 0.00 0.00 100 1006.9
20260505072202 21 193 0.0 1.6 0.00 0.00 0.00 100 1006.9
20260505072103 21 182 0.0 1.6 0.00 0.00 0.00 100 1006.9
20260505072002 21 182 0.0 4.8 0.00 0.00 0.00 100 1006.9
20260505071902 21 182 0.0 4.8 0.00 0.00 0.00 100 1007.0
20260505071804 21 182 0.0 4.8 0.00 0.00 0.00 100 1007.0
20260505071703 21 195 0.0 4.8 0.00 0.00 0.00 100 1006.9
20260505071602 21 195 0.0 4.8 0.00 0.00 0.00 100 1006.9
20260505071504 21 195 0.0 4.8 0.00 0.00 0.00 100 1006.9
20260505071402 21 196 0.0 4.8 0.00 0.00 0.00 100 1006.9
20260505071303 21 196 0.0 4.8 0.00 0.00 0.00 100 1006.9
20260505071202 21 196 1.6 4.8 0.00 0.00 0.00 100 1006.9
20260505071103 21 196 1.6 4.8 0.00 0.00 0.00 100 1006.9
20260505071003 21 162 0.0 4.8 0.00 0.00 0.00 100 1006.9
20260505070903 21 162 0.0 4.8 0.00 0.00 0.00 100 1006.9
20260505070803 21 161 0.0 4.8 0.00 0.00 0.00 100 1007.0
20260505070703 21 161 0.0 4.8 0.00 0.00 0.00 100 1006.9
20260505070603 21 159 0.0 4.8 0.00 0.00 0.00 100 1007.0
20260505070502 21 159 0.0 4.8 0.00 0.00 0.00 100 1007.0
20260505070403 21 159 0.0 4.8 0.00 0.00 0.00 100 1007.0
20260505070304 21 159 1.6 4.8 0.00 0.00 0.00 100 1007.1
20260505070202 21 151 1.6 4.8 0.00 0.00 0.00 100 1007.1
20260505070004 21 164 1.6 4.8 0.00 0.00 0.00 100 1007.1
20260505065903 21 164 1.6 4.8 0.00 0.00 0.00 100 1007.1
20260505065802 21 162 1.6 4.8 0.00 0.00 0.00 100 1007.0
20260505065703 21 173 1.6 4.8 0.00 0.00 0.00 100 1007.0
20260505065603 21 183 1.6 4.8 0.00 0.00 0.00 100 1007.0
20260505065503 21 183 1.6 4.8 0.00 0.00 0.00 100 1007.1
20260505065403 21 189 1.6 4.8 0.00 0.00 0.00 100 1007.1
20260505065303 21 175 1.6 4.8 0.00 0.00 0.00 100 1007.1
20260505065202 21 162 0.0 1.6 0.00 0.00 0.00 100 1007.1
20260505065103 21 162 0.0 1.6 0.00 0.00 0.00 100 1007.1
20260505065003 21 162 0.0 3.2 0.00 0.00 0.00 100 1007.1
20260505064903 21 162 0.0 3.2 0.00 0.00 0.00 100 1007.1
20260505064803 21 162 0.0 3.2 0.00 0.00 0.00 100 1007.2
20260505064703 21 162 0.0 3.2 0.00 0.00 0.00 100 1007.2
20260505064603 21 162 0.0 3.2 0.00 0.00 0.00 100 1007.2
20260505064503 21 164 0.0 3.2 0.00 0.00 0.00 100 1007.3
20260505064403 21 164 0.0 3.2 0.00 0.00 0.00 100 1007.4
20260505064303 21 168 0.0 3.2 0.00 0.00 0.00 100 1007.4
20260505064202 21 166 0.0 3.2 0.00 0.00 0.00 100 1007.4
20260505064103 21 166 0.0 3.2 0.00 0.00 0.00 100 1007.5
20260505064004 21 169 1.6 3.2 0.00 0.00 0.00 100 1007.4
20260505063903 21 161 0.0 4.8 0.00 0.00 0.00 100 1007.4
20260505063803 21 161 0.0 4.8 0.00 0.00 0.00 100 1007.4
20260505063702 21 161 0.0 6.4 0.00 0.00 0.00 100 1007.4
20260505063603 21 161 0.0 6.4 0.00 0.00 0.00 100 1007.4
20260505063503 21 161 0.0 6.4 0.00 0.00 0.00 100 1007.4
20260505063403 21 161 0.0 6.4 0.00 0.00 0.00 100 1007.5
20260505063303 21 161 0.0 6.4 0.00 0.00 0.00 100 1007.6
20260505063202 21 178 1.6 6.4 0.00 0.00 0.00 100 1007.6
20260505063101 21 179 1.6 6.4 0.00 0.00 0.00 100 1007.6
20260505063003 21 173 0.0 6.4 0.00 0.00 0.00 100 1007.7
20260505062903 21 173 1.6 6.4 0.00 0.00 0.00 100 1007.6
20260505062802 21 175 1.6 6.4 0.00 0.00 0.00 100 1007.6
20260505062656 21 168 0.0 1.6 0.00 0.00 0.00 100 1007.5
20260505062549 21 176 0.0 1.6 0.00 0.00 0.00 100 1007.6
20260505062445 21 176 0.0 1.6 0.00 0.00 0.00 100 1007.5
20260505062341 21 178 0.0 1.6 0.00 0.00 0.00 100 1007.6
20260505062233 21 186 0.0 1.6 0.00 0.00 0.00 100 1007.6
20260505062132 21 182 0.0 3.2 0.00 0.00 0.00 100 1007.6
20260505062031 21 182 0.0 4.8 0.00 0.00 0.00 100 1007.7
20260505061931 21 180 0.0 6.4 0.00 0.00 0.00 100 1007.7
20260505061831 21 165 0.0 6.4 0.00 0.00 0.00 100 1007.6
20260505061732 21 165 0.0 6.4 0.00 0.00 0.00 100 1007.6
20260505061631 21 164 0.0 6.4 0.00 0.00 0.00 100 1007.6
20260505061532 21 164 0.0 6.4 0.00 0.00 0.00 100 1007.6
20260505061432 21 162 0.0 6.4 0.00 0.00 0.00 100 1007.6
20260505061330 21 162 1.6 6.4 0.00 0.00 0.00 100 1007.7
20260505061229 21 162 1.6 6.4 0.00 0.00 0.00 100 1007.6
20260505061128 21 166 1.6 6.4 0.00 0.00 0.00 100 1007.6
20260505061015 21 169 0.0 4.8 0.00 0.00 0.00 100 1007.6
20260505060914 21 169 0.0 4.8 0.00 0.00 0.00 100 1007.6
20260505060815 21 169 1.6 4.8 0.00 0.00 0.00 100 1007.6
20260505060714 21 171 1.6 4.8 0.00 0.00 0.00 100 1007.6
20260505060614 21 159 1.6 4.8 0.00 0.00 0.00 100 1007.5
20260505060517 21 164 0.0 3.2 0.00 0.00 0.00 100 1007.6
20260505060415 21 162 0.0 3.2 0.00 0.00 0.00 100 1007.5
20260505060316 21 164 0.0 3.2 0.00 0.00 0.00 100 1007.5
20260505060215 21 165 0.0 3.2 0.00 0.00 0.00 100 1007.5
20260505060113 21 165 0.0 3.2 0.00 0.00 0.00 100 1007.5
20260505060015 21 165 0.0 3.2 0.00 0.00 0.00 100 1007.5
20260505055916 21 168 0.0 1.6 0.00 0.00 0.00 100 1007.6
20260505055815 21 168 0.0 1.6 0.00 0.00 0.00 100 1007.6
20260505055714 21 169 0.0 1.6 0.00 0.00 0.00 100 1007.7
20260505055615 21 172 0.0 1.6 0.00 0.00 0.00 100 1007.7
20260505055515 21 172 0.0 1.6 0.00 0.00 0.00 100 1007.8
20260505055416 21 172 0.0 1.6 0.00 0.00 0.00 100 1007.8
20260505055316 21 172 0.0 1.6 0.00 0.00 0.00 100 1007.8
20260505055215 21 172 0.0 1.6 0.00 0.00 0.00 100 1007.8
20260505055114 21 172 0.0 3.2 0.00 0.00 0.00 100 1007.8
20260505055015 21 173 0.0 3.2 0.00 0.00 0.00 100 1007.8
20260505054915 21 171 0.0 3.2 0.00 0.00 0.00 100 1007.9
20260505054815 21 171 0.0 3.2 0.00 0.00 0.00 100 1007.8
20260505054714 21 171 0.0 3.2 0.00 0.00 0.00 100 1007.8
20260505054616 21 171 0.0 3.2 0.00 0.00 0.00 100 1007.8
20260505054514 21 171 0.0 3.2 0.00 0.00 0.00 100 1007.8
20260505054416 21 171 0.0 3.2 0.00 0.00 0.00 100 1007.8
20260505054316 21 171 0.0 3.2 0.00 0.00 0.00 100 1007.8
20260505054216 21 171 0.0 3.2 0.00 0.00 0.00 100 1007.9
20260505054115 21 168 0.0 1.6 0.00 0.00 0.00 100 1007.8
20260505054013 21 168 0.0 1.6 0.00 0.00 0.00 100 1007.9
20260505053913 21 168 0.0 1.6 0.00 0.00 0.00 100 1007.8
20260505053814 21 168 0.0 1.6 0.00 0.00 0.00 100 1007.9
20260505053714 21 168 0.0 3.2 0.00 0.00 0.00 100 1008.0
20260505053615 21 166 0.0 4.8 0.00 0.00 0.00 100 1008.0
20260505053513 21 166 0.0 4.8 0.00 0.00 0.00 100 1007.9
20260505053414 21 166 0.0 4.8 0.00 0.00 0.00 100 1007.9
20260505053313 21 166 0.0 4.8 0.00 0.00 0.00 100 1007.9
20260505053213 21 166 0.0 4.8 0.00 0.00 0.00 100 1007.9
20260505053114 21 166 0.0 4.8 0.00 0.00 0.00 100 1007.9
20260505053014 21 172 0.0 4.8 0.00 0.00 0.00 100 1007.9
20260505052914 21 168 1.6 4.8 0.00 0.00 0.00 100 1008.0
20260505052814 21 168 1.6 4.8 0.00 0.00 0.00 100 1008.0
20260505052714 21 168 0.0 4.8 0.00 0.00 0.00 100 1008.0
20260505052614 21 168 0.0 1.6 0.00 0.00 0.00 100 1008.0
20260505052514 21 168 0.0 1.6 0.00 0.00 0.00 100 1008.0
20260505052414 21 168 0.0 1.6 0.00 0.00 0.00 100 1008.0
20260505052315 21 169 0.0 1.6 0.00 0.00 0.00 100 1008.1
20260505052214 21 169 0.0 1.6 0.00 0.00 0.00 100 1008.1
20260505052113 21 169 0.0 1.6 0.00 0.00 0.00 100 1008.1
20260505052013 21 169 0.0 3.2 0.00 0.00 0.00 100 1008.1
20260505051914 21 169 0.0 3.2 0.00 0.00 0.00 100 1008.1
20260505051815 21 169 0.0 3.2 0.00 0.00 0.00 100 1008.1
20260505051714 21 168 0.0 3.2 0.00 0.00 0.00 100 1008.2
20260505051614 21 168 0.0 4.8 0.00 0.00 0.00 100 1008.1
20260505051514 21 168 0.0 4.8 0.00 0.00 0.00 100 1008.1
20260505051414 21 168 0.0 4.8 0.00 0.00 0.00 100 1008.1
20260505051314 21 168 0.0 4.8 0.00 0.00 0.00 100 1008.0
20260505051214 21 168 1.6 4.8 0.00 0.00 0.00 100 1008.0
20260505051114 21 168 0.0 4.8 0.00 0.00 0.00 100 1008.0
20260505051015 21 171 0.0 4.8 0.00 0.00 0.00 100 1008.1
20260505050913 21 171 0.0 4.8 0.00 0.00 0.00 100 1008.0
20260505050812 21 171 0.0 4.8 0.00 0.00 0.00 100 1008.0
20260505050714 21 171 1.6 4.8 0.00 0.00 0.00 100 1008.0
20260505050613 21 166 0.0 4.8 0.00 0.00 0.00 100 1008.0
20260505050514 21 166 0.0 4.8 0.00 0.00 0.00 100 1007.9
20260505050414 21 166 0.0 4.8 0.00 0.00 0.00 100 1008.0
20260505050314 21 166 0.0 4.8 0.00 0.00 0.00 100 1008.0
20260505050212 21 166 0.0 4.8 0.00 0.00 0.00 100 1008.0
20260505050113 21 171 1.6 4.8 0.00 0.00 0.00 100 1008.0
20260505041702 22 148 1.6 8.0 0.00 0.00 0.00 100 1008.3
20260505041602 22 173 3.2 8.0 0.00 0.00 0.00 100 1008.3
20260505041504 22 164 3.2 8.0 0.00 0.00 0.00 100 1008.3
20260505041403 22 162 1.6 8.0 0.00 0.00 0.00 100 1008.3
20260505041302 22 180 3.2 8.0 0.00 0.00 0.00 100 1008.4
20260505041203 22 180 3.2 8.0 0.00 0.00 0.00 100 1008.4
20260505041103 22 180 3.2 8.0 0.00 0.00 0.00 100 1008.4
20260505041005 22 192 3.2 8.0 0.00 0.00 0.00 100 1008.4
20260505040902 22 161 1.6 8.0 0.00 0.00 0.00 100 1008.3
20260505040803 22 168 3.2 9.7 0.00 0.00 0.00 100 1008.3
20260505040701 22 165 3.2 9.7 0.00 0.00 0.00 100 1008.3
20260505040604 22 161 1.6 9.7 0.00 0.00 0.00 100 1008.3
20260505040502 22 140 3.2 9.7 0.00 0.00 0.00 100 1008.2
20260505040404 22 169 4.8 9.7 0.00 0.00 0.00 100 1008.4
20260505040302 22 164 4.8 9.7 0.00 0.00 0.00 100 1008.3
20260505040204 22 173 4.8 9.7 0.00 0.00 0.00 100 1008.3
20260505040004 22 162 4.8 9.7 0.00 0.00 0.00 100 1008.3
20260505035904 22 166 3.2 11.3 0.00 0.00 0.00 100 1008.4
20260505035801 22 169 1.6 11.3 0.00 0.00 0.00 100 1008.3
20260505035704 22 168 1.6 11.3 0.00 0.00 0.00 100 1008.4
20260505035603 22 169 3.2 11.3 0.00 0.00 0.00 100 1008.3
20260505035502 22 151 4.8 11.3 0.00 0.00 0.00 100 1008.3
20260505035403 22 152 3.2 11.3 0.00 0.00 0.00 100 1008.3
20260505035304 22 182 1.6 11.3 0.00 0.00 0.00 100 1008.2
20260505035203 22 168 3.2 11.3 0.00 0.00 0.00 100 1008.4
20260505035102 22 164 6.4 11.3 0.00 0.00 0.00 100 1008.3
20260505035004 22 121 4.8 11.3 0.00 0.00 0.00 100 1008.4
20260505034904 23 154 3.2 8.0 0.00 0.00 0.00 100 1008.4
20260505034803 23 164 3.2 9.7 0.00 0.00 0.00 100 1008.5
20260505034703 23 172 4.8 9.7 0.00 0.00 0.00 100 1008.4
20260505034603 23 155 4.8 9.7 0.00 0.00 0.00 100 1008.5
20260505034503 23 133 4.8 14.5 0.00 0.00 0.00 100 1008.5
20260505034403 23 155 1.6 14.5 0.00 0.00 0.00 100 1008.6
20260505034303 23 166 1.6 14.5 0.00 0.00 0.00 100 1008.7
20260505034202 23 166 3.2 14.5 0.00 0.00 0.00 100 1008.7
20260505034104 23 168 3.2 14.5 0.00 0.00 0.00 100 1008.7
20260505034001 23 162 4.8 14.5 0.00 0.00 0.00 100 1008.7
20260505033903 23 172 4.8 14.5 0.00 0.00 0.00 100 1008.6
20260505033803 23 162 3.2 14.5 0.00 0.00 0.00 100 1008.6
20260505033703 23 179 4.8 14.5 0.00 0.00 0.00 100 1008.6
20260505033603 23 151 4.8 14.5 0.00 0.00 0.00 100 1008.7
20260505033502 23 148 3.2 9.7 0.00 0.00 0.00 100 1008.6
20260505033402 22 159 3.2 9.7 0.00 0.00 0.00 100 1008.6
20260505033303 22 135 3.2 11.3 0.00 0.00 0.00 100 1008.6
20260505033203 22 133 6.4 11.3 0.00 0.00 0.00 100 1008.7
20260505033104 22 207 4.8 11.3 0.00 0.00 0.00 100 1008.6
20260505033001 22 168 3.2 11.3 0.00 0.00 0.00 100 1008.6
20260505032903 22 155 1.6 11.3 0.00 0.00 0.00 100 1008.6
20260505032803 22 180 1.6 11.3 0.00 0.00 0.00 100 1008.7
20260505032703 22 182 3.2 14.5 0.00 0.00 0.00 100 1008.5
20260505032604 23 196 3.2 14.5 0.00 0.00 0.00 100 1008.6
20260505032503 23 178 4.8 14.5 0.00 0.00 0.00 100 1008.6
20260505032401 23 196 4.8 14.5 0.00 0.00 0.00 100 1008.5
20260505032304 23 151 3.2 14.5 0.00 0.00 0.00 100 1008.5
20260505032203 23 145 3.2 14.5 0.00 0.00 0.00 100 1008.5
20260505032102 23 224 3.2 14.5 0.00 0.00 0.00 100 1008.5
20260505032004 23 155 3.2 14.5 0.00 0.00 0.00 100 1008.6
20260505031901 23 149 6.4 14.5 0.00 0.00 0.00 100 1008.5
20260505031803 22 152 8.0 14.5 0.00 0.00 0.00 100 1008.5
20260505031702 22 230 6.4 14.5 0.00 0.00 0.00 100 1008.5
20260505031602 22 159 4.8 14.5 0.00 0.00 0.00 100 1008.5
20260505031504 22 131 4.8 14.5 0.00 0.00 0.00 100 1008.4
20260505031404 22 151 4.8 14.5 0.00 0.00 0.00 100 1008.4
20260505031303 22 137 3.2 14.5 0.00 0.00 0.00 100 1008.4
20260505031203 22 157 3.2 14.5 0.00 0.00 0.00 100 1008.4
20260505031103 22 173 6.4 14.5 0.00 0.00 0.00 100 1008.4
20260505031003 22 149 6.4 14.5 0.00 0.00 0.00 100 1008.4
20260505030900 22 172 8.0 14.5 0.00 0.00 0.00 100 1008.4
20260505030759 22 161 9.7 14.5 0.00 0.00 0.00 100 1008.3
20260505030658 22 164 4.8 11.3 0.00 0.00 0.00 100 1008.4
20260505030554 22 180 4.8 8.0 0.00 0.00 0.00 100 1008.4
20260505030453 22 114 4.8 9.7 0.00 0.00 0.00 100 1008.4
20260505030349 22 158 3.2 9.7 0.00 0.00 0.00 100 1008.3
20260505030233 22 171 3.2 9.7 0.00 0.00 0.00 100 1008.3
20260505030132 22 175 3.2 9.7 0.00 0.00 0.00 100 1008.3
20260505030033 22 157 3.2 9.7 0.00 0.00 0.00 100 1008.3
20260505025932 22 161 4.8 9.7 0.00 0.00 0.00 100 1008.3
20260505025832 22 179 3.2 9.7 0.00 0.00 0.00 100 1008.4
20260505025731 22 159 3.2 9.7 0.00 0.00 0.00 100 1008.4
20260505025631 22 144 3.2 9.7 0.00 0.00 0.00 100 1008.3
20260505025531 22 169 1.6 8.0 0.00 0.00 0.00 100 1008.4
20260505025431 22 169 3.2 8.0 0.00 0.00 0.00 100 1008.4
20260505025331 22 168 4.8 8.0 0.00 0.00 0.00 100 1008.4
20260505025231 22 175 3.2 8.0 0.00 0.00 0.00 100 1008.5
20260505025131 22 137 3.2 6.4 0.00 0.00 0.00 100 1008.4
20260505025032 22 173 3.2 9.7 0.00 0.00 0.00 100 1008.4
20260505024931 22 164 3.2 9.7 0.00 0.00 0.00 100 1008.5
20260505024831 22 157 3.2 9.7 0.00 0.00 0.00 100 1008.5
20260505024732 22 159 3.2 9.7 0.00 0.00 0.00 100 1008.5
20260505024631 22 152 3.2 9.7 0.00 0.00 0.00 100 1008.5
20260505024529 22 148 3.2 9.7 0.00 0.00 0.00 100 1008.5
20260505024428 22 141 4.8 9.7 0.00 0.00 0.00 100 1008.6
20260505024310 22 158 4.8 9.7 0.00 0.00 0.00 100 1008.5
20260505024211 22 171 4.8 9.7 0.00 0.00 0.00 100 1008.5
20260505024109 22 189 4.8 9.7 0.00 0.00 0.00 100 1008.5
20260505024011 22 223 4.8 9.7 0.00 0.00 0.00 100 1008.4
20260505023910 22 148 3.2 9.7 0.00 0.00 0.00 100 1008.5
20260505023809 22 206 4.8 9.7 0.00 0.00 0.00 100 1008.4
20260505023710 22 162 6.4 9.7 0.00 0.00 0.00 100 1008.4
20260505023610 22 169 4.8 9.7 0.00 0.00 0.00 100 1008.4
20260505023510 22 169 4.8 9.7 0.00 0.00 0.00 100 1008.5
20260505023410 22 175 6.4 9.7 0.00 0.00 0.00 100 1008.4
20260505023310 22 168 4.8 9.7 0.00 0.00 0.00 100 1008.4
20260505023210 23 158 4.8 9.7 0.00 0.00 0.00 100 1008.5
20260505023110 23 235 3.2 9.7 0.00 0.00 0.00 100 1008.4
20260505023009 23 176 3.2 9.7 0.00 0.00 0.00 100 1008.4
20260505022909 23 179 3.2 16.1 0.00 0.00 0.00 100 1008.4
20260505022810 23 149 3.2 16.1 0.00 0.00 0.00 100 1008.4
20260505022711 22 138 3.2 16.1 0.00 0.00 0.00 100 1008.4
20260505022611 22 157 4.8 16.1 0.00 0.00 0.00 100 1008.4
20260505022511 22 159 4.8 16.1 0.00 0.00 0.00 100 1008.4
20260505022410 22 159 4.8 16.1 0.00 0.00 0.00 100 1008.4
20260505022309 22 145 4.8 16.1 0.00 0.00 0.00 100 1008.4
20260505022210 22 169 8.0 16.1 0.00 0.00 0.00 100 1008.4
20260505022110 22 159 6.4 16.1 0.00 0.00 0.00 100 1008.5
20260505022009 22 166 4.8 14.5 0.00 0.00 0.00 100 1008.5
20260505021910 22 152 6.4 14.5 0.00 0.00 0.00 100 1008.5
20260505021809 22 204 4.8 19.3 0.00 0.00 0.00 100 1008.5
20260505021710 22 162 3.2 19.3 0.00 0.00 0.00 100 1008.5
20260505021608 22 193 3.2 19.3 0.00 0.00 0.00 100 1008.5
20260505021510 22 168 6.4 19.3 0.00 0.00 0.00 100 1008.4
20260505021409 22 168 6.4 19.3 0.00 0.00 0.00 100 1008.4
20260505021311 22 152 6.4 19.3 0.00 0.00 0.00 100 1008.5
20260505021209 22 231 6.4 19.3 0.00 0.00 0.00 100 1008.4
20260505021111 22 172 6.4 19.3 0.00 0.00 0.00 100 1008.4
20260505021008 22 147 8.0 19.3 0.00 0.00 0.00 100 1008.4
20260505020909 22 164 8.0 19.3 0.00 0.00 0.00 100 1008.4
20260505020811 22 168 4.8 8.0 0.00 0.00 0.00 100 1008.4
20260505020709 22 157 3.2 8.0 0.00 0.00 0.00 100 1008.4
20260505020609 22 179 3.2 8.0 0.00 0.00 0.00 100 1008.4
20260505020510 22 180 3.2 8.0 0.00 0.00 0.00 100 1008.2
20260505020410 22 186 3.2 8.0 0.00 0.00 0.00 100 1008.3
20260505020310 22 166 3.2 8.0 0.00 0.00 0.00 100 1008.3
20260505020210 22 178 3.2 8.0 0.00 0.00 0.00 100 1008.3
20260505020109 22 180 1.6 6.4 0.00 0.00 0.00 100 1008.3
20260505020010 22 192 3.2 6.4 0.00 0.00 0.00 100 1008.3
20260505015910 22 162 3.2 6.4 0.00 0.00 0.00 100 1008.4
20260505015808 22 165 3.2 6.4 0.00 0.00 0.00 100 1008.2
20260505015709 22 155 3.2 6.4 0.00 0.00 0.00 100 1008.3
20260505015610 22 149 1.6 6.4 0.00 0.00 0.00 100 1008.3
20260505015508 22 164 1.6 6.4 0.00 0.00 0.00 100 1008.2
20260505015408 22 165 1.6 6.4 0.00 0.00 0.00 100 1008.2
20260505015308 22 158 1.6 6.4 0.00 0.00 0.00 100 1008.2
20260505015210 22 148 0.0 4.8 0.00 0.00 0.00 100 1008.1
20260505015108 22 148 0.0 4.8 0.00 0.00 0.00 100 1008.1
20260505015009 22 148 1.6 4.8 0.00 0.00 0.00 100 1008.0
20260505014909 22 140 1.6 4.8 0.00 0.00 0.00 100 1008.0
20260505014809 22 140 1.6 4.8 0.00 0.00 0.00 100 1008.0
20260505014709 22 145 0.0 6.4 0.00 0.00 0.00 100 1007.8
20260505014610 22 144 0.0 6.4 0.00 0.00 0.00 100 1007.8
20260505014509 22 144 1.6 8.0 0.00 0.00 0.00 100 1007.8
20260505014410 22 99 1.6 8.0 0.00 0.00 0.00 100 1007.7
20260505014308 22 142 1.6 8.0 0.00 0.00 0.00 100 1007.7
20260505014210 22 142 3.2 8.0 0.00 0.00 0.00 100 1007.8
20260505014109 22 144 3.2 8.0 0.00 0.00 0.00 100 1007.8
20260505014009 22 141 3.2 8.0 0.00 0.00 0.00 100 1007.8
20260505013910 22 161 3.2 8.0 0.00 0.00 0.00 100 1007.9
20260505013808 22 159 3.2 8.0 0.00 0.00 0.00 100 1008.0
20260505013709 22 158 4.8 8.0 0.00 0.00 0.00 100 1008.0
20260505013609 22 147 4.8 8.0 0.00 0.00 0.00 100 1007.9
20260505013509 22 135 4.8 8.0 0.00 0.00 0.00 100 1007.9
20260505013408 22 134 3.2 8.0 0.00 0.00 0.00 100 1008.0
20260505013310 22 169 3.2 8.0 0.00 0.00 0.00 100 1007.9
20260505013210 22 124 3.2 8.0 0.00 0.00 0.00 100 1007.9
20260505013109 22 161 3.2 8.0 0.00 0.00 0.00 100 1007.9
20260505013009 22 172 3.2 8.0 0.00 0.00 0.00 100 1007.9
20260505012908 22 121 1.6 8.0 0.00 0.00 0.00 100 1007.9
20260505012810 22 164 3.2 8.0 0.00 0.00 0.00 100 1008.0
20260505012710 23 164 4.8 8.0 0.00 0.00 0.00 100 1007.9
20260505012610 23 159 3.2 6.4 0.00 0.00 0.00 100 1008.0
20260505012510 23 149 3.2 4.8 0.00 0.00 0.00 100 1007.9
20260505012410 23 138 3.2 4.8 0.00 0.00 0.00 100 1008.0
20260505012310 23 145 1.6 6.4 0.00 0.00 0.00 100 1008.0
20260505012208 23 151 3.2 6.4 0.00 0.00 0.00 100 1008.0
20260505012110 23 152 3.2 6.4 0.00 0.00 0.00 100 1008.0
20260505012008 23 164 1.6 6.4 0.00 0.00 0.00 100 1008.0
20260505011908 23 141 1.6 8.0 0.00 0.00 0.00 100 1008.0
20260505011809 23 141 1.6 8.0 0.00 0.00 0.00 100 1008.0
20260505011708 23 141 1.6 8.0 0.00 0.00 0.00 100 1008.0
20260505011608 23 149 1.6 8.0 0.00 0.00 0.00 100 1008.0
20260505011510 23 149 3.2 8.0 0.00 0.00 0.00 100 1008.0
20260505011408 23 149 3.2 8.0 0.00 0.00 0.00 100 1008.0
20260505011308 23 152 3.2 8.0 0.00 0.00 0.00 100 1008.0
20260505011207 23 90 3.2 8.0 0.00 0.00 0.00 100 1007.9
20260505011108 23 155 3.2 8.0 0.00 0.00 0.00 100 1007.9
20260505011009 23 155 3.2 8.0 0.00 0.00 0.00 100 1008.0
20260505010910 23 142 1.6 8.0 0.00 0.00 0.00 100 1008.0
20260505010808 23 142 1.6 8.0 0.00 0.00 0.00 100 1008.0
20260505010709 23 142 3.2 8.0 0.00 0.00 0.00 100 1008.1
20260505010607 23 141 1.6 8.0 0.00 0.00 0.00 100 1008.1
20260505010508 23 144 3.2 8.0 0.00 0.00 0.00 100 1008.0
20260505010409 23 141 3.2 8.0 0.00 0.00 0.00 100 1008.0
20260505010308 23 165 3.2 8.0 0.00 0.00 0.00 100 1008.0
20260505010208 23 144 1.6 8.0 0.00 0.00 0.00 100 1008.0
20260505010108 23 157 3.2 8.0 0.00 0.00 0.00 100 1008.0
20260505010003 23 157 1.6 8.0 0.00 0.00 0.00 100 1008.0
20260505005902 23 155 1.6 8.0 0.00 0.00 0.00 100 1007.9
20260505005803 23 157 3.2 14.5 0.00 0.00 0.00 100 1008.0
20260505005702 23 157 4.8 14.5 0.00 0.00 0.00 100 1007.9
20260505005602 23 155 6.4 14.5 0.00 0.00 0.00 100 1007.9
20260505005503 23 196 3.2 14.5 0.00 0.00 0.00 100 1007.8
20260505005404 23 154 1.6 14.5 0.00 0.00 0.00 100 1007.8
20260505005304 23 158 3.2 14.5 0.00 0.00 0.00 100 1007.8
20260505005204 23 137 3.2 14.5 0.00 0.00 0.00 100 1007.8
20260505005104 23 148 3.2 14.5 0.00 0.00 0.00 100 1007.8
20260505005003 23 144 4.8 14.5 0.00 0.00 0.00 100 1007.7
20260505004904 23 123 4.8 14.5 0.00 0.00 0.00 100 1007.8
20260505004803 23 173 3.2 8.0 0.00 0.00 0.00 100 1007.8
20260505004702 23 138 3.2 8.0 0.00 0.00 0.00 100 1007.7
20260505004603 23 162 3.2 8.0 0.00 0.00 0.00 100 1007.8
20260505004503 23 157 3.2 14.5 0.00 0.00 0.00 100 1007.7
20260505004404 23 145 3.2 14.5 0.00 0.00 0.00 100 1007.7
20260505004303 23 151 4.8 14.5 0.00 0.00 0.00 100 1007.7
20260505004203 23 149 6.4 14.5 0.00 0.00 0.00 100 1007.7
20260505004103 23 164 4.8 14.5 0.00 0.00 0.00 100 1007.7
20260505004003 23 125 3.2 14.5 0.00 0.00 0.00 100 1007.7
20260505003902 23 154 3.2 14.5 0.00 0.00 0.00 100 1007.7
20260505003803 23 130 6.4 14.5 0.00 0.00 0.00 100 1007.7
20260505003701 23 135 6.4 14.5 0.00 0.00 0.00 100 1007.7
20260505003603 23 192 6.4 14.5 0.00 0.00 0.00 100 1007.8
20260505003504 23 145 4.8 11.3 0.00 0.00 0.00 100 1007.8
20260505003403 23 165 3.2 11.3 0.00 0.00 0.00 100 1007.8
20260505003303 23 148 3.2 11.3 0.00 0.00 0.00 100 1007.8
20260505003201 23 148 3.2 11.3 0.00 0.00 0.00 100 1007.8
20260505003104 23 154 4.8 11.3 0.00 0.00 0.00 100 1007.7
20260505003004 23 154 6.4 11.3 0.00 0.00 0.00 100 1007.8
20260505002902 23 183 4.8 11.3 0.00 0.00 0.00 100 1007.8
20260505002802 23 141 4.8 9.7 0.00 0.00 0.00 100 1007.8
20260505002703 23 140 3.2 9.7 0.00 0.00 0.00 100 1007.9
20260505002602 23 157 4.8 9.7 0.00 0.00 0.00 100 1007.9
20260505002503 23 162 4.8 9.7 0.00 0.00 0.00 100 1007.9
20260505002404 23 151 4.8 9.7 0.00 0.00 0.00 100 1007.9
20260505002304 23 158 3.2 9.7 0.00 0.00 0.00 100 1008.0
20260505002204 23 158 4.8 9.7 0.00 0.00 0.00 100 1007.9
20260505002104 23 164 4.8 9.7 0.00 0.00 0.00 100 1008.0
20260505002003 23 141 6.4 9.7 0.00 0.00 0.00 100 1008.0
20260505001904 23 140 6.4 9.7 0.00 0.00 0.00 100 1008.0
20260505001804 23 175 3.2 9.7 0.00 0.00 0.00 100 1007.9
20260505001703 23 166 3.2 8.0 0.00 0.00 0.00 100 1008.0
20260505001602 23 113 4.8 8.0 0.00 0.00 0.00 100 1007.9
20260505001504 23 137 4.8 8.0 0.00 0.00 0.00 100 1008.0
20260505001404 23 147 3.2 6.4 0.00 0.00 0.00 100 1008.0
20260505001302 23 141 3.2 9.7 0.00 0.00 0.00 100 1007.9
20260505001202 23 165 3.2 11.3 0.00 0.00 0.00 100 1008.0
20260505001105 23 164 3.2 11.3 0.00 0.00 0.00 100 1007.9
20260505001003 23 161 3.2 11.3 0.00 0.00 0.00 100 1007.9
20260505000903 23 159 6.4 14.5 0.00 0.00 0.00 100 1007.9
20260505000803 23 159 6.4 14.5 0.00 0.00 0.00 100 1008.0
20260505000704 23 159 6.4 20.9 0.00 0.00 0.00 100 1008.0
20260505000603 23 159 6.4 20.9 0.00 0.00 0.00 100 1007.9
20260505000432 23 140 8.0 20.9 0.00 0.00 0.00 100 1007.9
20260505000332 23 157 8.0 20.9 0.00 0.00 0.00 100 1007.9
20260505000233 23 169 6.4 20.9 0.00 0.00 0.00 100 1007.9
20260505000132 23 165 4.8 20.9 0.00 0.00 0.00 100 1008.0
20260505000032 23 155 6.4 20.9 0.00 0.00 0.00 100 1008.0
20260504235932 23 158 9.7 20.9 0.00 0.00 0.00 100 1008.1
20260504235831 23 159 8.0 20.9 0.00 0.00 0.00 100 1008.1
20260504235731 23 164 6.4 16.1 0.00 0.00 0.00 100 1008.0
20260504235631 23 152 6.4 9.7 0.00 0.00 0.00 100 1008.0
20260504235532 24 162 3.2 9.7 0.00 0.00 0.00 100 1008.1
20260504235432 24 158 3.2 9.7 0.00 0.00 0.00 100 1008.1
20260504235328 24 107 4.8 9.7 0.00 0.00 0.00 100 1008.1
20260504235213 24 152 6.4 9.7 0.00 0.00 0.00 100 1008.1
20260504235107 24 152 4.8 17.7 0.00 0.00 0.00 100 1008.0
20260504235007 24 155 4.8 17.7 0.00 0.00 0.00 100 1008.0
20260504234906 24 161 3.2 17.7 0.00 0.00 0.00 100 1007.9
20260504234806 24 151 3.2 17.7 0.00 0.00 0.00 100 1008.0
20260504234707 24 149 4.8 17.7 0.00 0.00 0.00 100 1008.0
20260504234606 24 165 4.8 17.7 0.00 0.00 0.00 100 1008.0
20260504234506 24 151 4.8 17.7 0.00 0.00 0.00 100 1008.1
20260504234405 24 151 6.4 17.7 0.00 0.00 0.00 100 1008.0
20260504234306 24 103 8.0 17.7 0.00 0.00 0.00 100 1008.1
20260504234205 24 125 8.0 17.7 0.00 0.00 0.00 100 1008.1
20260504234105 24 185 4.8 14.5 0.00 0.00 0.00 100 1008.0
20260504234005 24 140 6.4 14.5 0.00 0.00 0.00 100 1008.0
20260504233905 24 152 4.8 16.1 0.00 0.00 0.00 100 1008.0
20260504233805 24 151 3.2 16.1 0.00 0.00 0.00 100 1008.1
20260504233705 24 141 6.4 16.1 0.00 0.00 0.00 100 1008.1
20260504233605 24 171 8.0 16.1 0.00 0.00 0.00 100 1008.1
20260504233505 24 145 6.4 16.1 0.00 0.00 0.00 100 1008.2
20260504233406 24 152 3.2 16.1 0.00 0.00 0.00 100 1008.2
20260504233305 24 107 3.2 16.1 0.00 0.00 0.00 100 1008.2
20260504233207 24 148 6.4 16.1 0.00 0.00 0.00 100 1008.3
20260504233104 24 137 6.4 17.7 0.00 0.00 0.00 100 1008.1
20260504233005 24 113 6.4 19.3 0.00 0.00 0.00 100 1008.2
20260504232905 24 125 4.8 19.3 0.00 0.00 0.00 100 1008.2
20260504232804 24 162 4.8 19.3 0.00 0.00 0.00 100 1008.2
20260504232706 24 138 4.8 19.3 0.00 0.00 0.00 100 1008.2
20260504232605 25 141 6.4 19.3 0.00 0.00 0.00 100 1008.3
20260504232506 25 154 4.8 19.3 0.00 0.00 0.00 100 1008.3
20260504232405 25 118 3.2 19.3 0.00 0.00 0.00 100 1008.3
20260504232305 25 147 6.4 19.3 0.00 0.00 0.00 100 1008.3
20260504232205 25 103 9.7 19.3 0.00 0.00 0.00 100 1008.3
20260504232105 25 148 8.0 19.3 0.00 0.00 0.00 100 1008.3
20260504232005 25 137 6.4 17.7 0.00 0.00 0.00 100 1008.4
20260504231905 25 157 6.4 17.7 0.00 0.00 0.00 100 1008.4
20260504231804 25 123 4.8 17.7 0.00 0.00 0.00 100 1008.3
20260504231705 25 127 3.2 17.7 0.00 0.00 0.00 100 1008.4
20260504231606 25 172 6.4 17.7 0.00 0.00 0.00 100 1008.3
20260504231504 25 134 8.0 17.7 0.00 0.00 0.00 100 1008.4
20260504231404 25 145 6.4 17.7 0.00 0.00 0.00 100 1008.4
20260504231304 25 123 6.4 17.7 0.00 0.00 0.00 100 1008.4
20260504231204 25 134 6.4 17.7 0.00 0.00 0.00 100 1008.5
20260504231104 25 158 4.8 20.9 0.00 0.00 0.00 100 1008.4
20260504231005 25 142 3.2 20.9 0.00 0.00 0.00 100 1008.5
20260504230905 25 131 4.8 20.9 0.00 0.00 0.00 100 1008.5
20260504230804 25 130 6.4 20.9 0.00 0.00 0.00 100 1008.4
20260504230705 25 169 6.4 20.9 0.00 0.00 0.00 100 1008.5
20260504230604 25 123 4.8 20.9 0.00 0.00 0.00 100 1008.5
20260504230505 25 116 6.4 20.9 0.00 0.00 0.00 100 1008.5
20260504230404 25 140 6.4 20.9 0.00 0.00 0.00 100 1008.5
20260504230304 25 179 6.4 20.9 0.00 0.00 0.00 100 1008.5
20260504230204 25 113 6.4 20.9 0.00 0.00 0.00 100 1008.4
20260504230104 25 128 4.8 16.1 0.00 0.00 0.00 100 1008.5
20260504230005 25 145 4.8 16.1 0.00 0.00 0.00 100 1008.3
20260504225904 25 161 4.8 16.1 0.00 0.00 0.00 100 1008.4
20260504225804 25 158 6.4 16.1 0.00 0.00 0.00 100 1008.3
20260504225704 25 100 6.4 16.1 0.00 0.00 0.00 100 1008.3
20260504225604 25 133 6.4 16.1 0.00 0.00 0.00 100 1008.3
20260504225504 25 144 4.8 11.3 0.00 0.00 0.00 100 1008.4
20260504225405 25 80 6.4 11.3 0.00 0.00 0.00 100 1008.3
20260504225304 25 131 4.8 11.3 0.00 0.00 0.00 100 1008.4
20260504225204 25 133 4.8 16.1 0.00 0.00 0.00 100 1008.5
20260504225104 25 157 6.4 16.1 0.00 0.00 0.00 100 1008.5
20260504225004 25 157 3.2 16.1 0.00 0.00 0.00 100 1008.5
20260504224904 25 96 3.2 16.1 0.00 0.00 0.00 100 1008.6
20260504224804 24 159 4.8 16.1 0.00 0.00 0.00 100 1008.6
20260504224704 24 137 4.8 16.1 0.00 0.00 0.00 100 1008.6
20260504224605 24 166 6.4 16.1 0.00 0.00 0.00 100 1008.6
20260504224504 24 128 6.4 16.1 0.00 0.00 0.00 100 1008.7
20260504224403 24 168 6.4 16.1 0.00 0.00 0.00 100 1008.6
20260504224303 24 134 6.4 16.1 0.00 0.00 0.00 100 1008.6
20260504224204 24 106 6.4 14.5 0.00 0.00 0.00 100 1008.7
20260504224105 24 161 6.4 14.5 0.00 0.00 0.00 100 1008.6
20260504224004 24 145 6.4 14.5 0.00 0.00 0.00 100 1008.6
20260504223904 24 162 6.4 14.5 0.00 0.00 0.00 100 1008.6
20260504223803 25 140 8.0 14.5 0.00 0.00 0.00 100 1008.7
20260504223704 25 169 6.4 14.5 0.00 0.00 0.00 100 1008.6
20260504223604 25 155 6.4 14.5 0.00 0.00 0.00 100 1008.6
20260504223504 25 179 8.0 14.5 0.00 0.00 0.00 100 1008.7
20260504223404 25 180 9.7 16.1 0.00 0.00 0.00 100 1008.7
20260504223303 25 135 6.4 16.1 0.00 0.00 0.00 100 1008.7
20260504223203 25 121 4.8 16.1 0.00 0.00 0.00 100 1008.6
20260504223103 25 103 6.4 16.1 0.00 0.00 0.00 100 1008.6
20260504223004 25 180 6.4 16.1 0.00 0.00 0.00 100 1008.8
20260504222904 25 100 6.4 16.1 0.00 0.00 0.00 100 1008.8
20260504222803 25 130 4.8 16.1 0.00 0.00 0.00 100 1008.8
20260504222704 25 144 6.4 16.1 0.00 0.00 0.00 100 1008.8
20260504222604 25 104 9.7 16.1 0.00 0.00 0.00 100 1008.9
20260504222504 25 159 12.9 16.1 0.00 0.00 0.00 100 1008.9
20260504222403 24 135 6.4 14.5 0.00 0.00 0.00 100 1009.0
20260504222305 24 135 6.4 16.1 0.00 0.00 0.00 100 1009.0
20260504222203 24 135 6.4 16.1 0.00 0.00 0.00 100 1009.0
20260504222103 24 135 6.4 16.1 0.00 0.00 0.00 100 1009.0
20260504222003 24 138 6.4 16.1 0.00 0.00 0.00 100 1009.0
20260504221903 24 168 6.4 16.1 0.00 0.00 0.00 100 1009.0
20260504221803 25 152 6.4 16.1 0.00 0.00 0.00 100 1008.9
20260504221703 25 124 6.4 16.1 0.00 0.00 0.00 100 1009.0
20260504221603 25 182 8.0 17.7 0.00 0.00 0.00 100 1008.9
20260504221504 25 152 9.7 17.7 0.00 0.00 0.00 100 1008.9
20260504221404 25 148 9.7 17.7 0.00 0.00 0.00 100 1008.9
20260504221303 25 111 6.4 17.7 0.00 0.00 0.00 100 1008.8
20260504221203 25 151 4.8 17.7 0.00 0.00 0.00 100 1008.9
20260504221102 25 93 3.2 17.7 0.00 0.00 0.00 100 1008.9
20260504221004 25 133 6.4 17.7 0.00 0.00 0.00 100 1008.9
20260504220903 25 92 8.0 22.5 0.00 0.00 0.00 100 1008.8
20260504220802 25 172 8.0 22.5 0.00 0.00 0.00 100 1009.0
20260504220703 25 110 6.4 22.5 0.00 0.00 0.00 100 1008.9
20260504220604 25 158 4.8 22.5 0.00 0.00 0.00 100 1009.0
20260504220504 25 121 4.8 22.5 0.00 0.00 0.00 100 1009.0
20260504220402 25 231 6.4 22.5 0.00 0.00 0.00 100 1009.0
20260504220302 25 141 4.8 22.5 0.00 0.00 0.00 100 1008.9
20260504220203 25 158 6.4 22.5 0.00 0.00 0.00 100 1008.9
20260504220004 26 141 9.7 22.5 0.00 0.00 0.00 100 1008.9
20260504215903 26 159 11.3 22.5 0.00 0.00 0.00 100 1008.9
20260504215804 25 157 8.0 22.5 0.00 0.00 0.00 100 1009.0
20260504215704 25 192 4.8 20.9 0.00 0.00 0.00 100 1009.0
20260504215602 25 162 8.0 20.9 0.00 0.00 0.00 100 1009.0
20260504215504 25 168 8.0 20.9 0.00 0.00 0.00 100 1009.0
20260504215402 25 138 4.8 20.9 0.00 0.00 0.00 100 1009.1
20260504215304 25 123 6.4 20.9 0.00 0.00 0.00 100 1009.0
20260504215202 25 154 8.0 20.9 0.00 0.00 0.00 100 1009.1
20260504215104 25 147 6.4 14.5 0.00 0.00 0.00 100 1009.1
20260504215002 26 161 6.4 14.5 0.00 0.00 0.00 100 1009.0
20260504214903 26 128 6.4 14.5 0.00 0.00 0.00 100 1009.0
20260504214803 26 128 6.4 14.5 0.00 0.00 0.00 100 1009.1
20260504214702 26 128 6.4 14.5 0.00 0.00 0.00 100 1009.1
20260504214602 26 128 6.4 14.5 0.00 0.00 0.00 100 1009.0
20260504214502 26 128 6.4 14.5 0.00 0.00 0.00 100 1009.0
20260504214403 26 128 6.4 14.5 0.00 0.00 0.00 100 1009.0
20260504214301 26 128 6.4 14.5 0.00 0.00 0.00 100 1008.9
20260504214201 26 137 8.0 14.5 0.00 0.00 0.00 100 1009.0
20260504214101 26 130 6.4 14.5 0.00 0.00 0.00 100 1009.0
20260504214000 26 121 6.4 14.5 0.00 0.00 0.00 100 1009.0
20260504213902 26 117 3.2 25.7 0.00 0.00 0.00 100 1009.0
20260504213801 26 117 3.2 25.7 0.00 0.00 0.00 100 1009.0
20260504213702 26 117 3.2 25.7 0.00 0.00 0.00 100 1009.0
20260504213602 26 148 3.2 25.7 0.00 0.00 0.00 100 1009.0
20260504213500 26 149 4.8 25.7 0.00 0.00 0.00 100 1009.0
20260504213400 26 131 8.0 25.7 0.00 0.00 0.00 100 1009.1
20260504213301 26 73 9.7 25.7 0.00 0.00 0.00 100 1009.1
20260504213201 26 145 8.0 25.7 0.00 0.00 0.00 100 1009.2
20260504213100 25 90 9.7 25.7 0.00 0.00 0.00 100 1009.2
20260504213001 25 149 11.3 25.7 0.00 0.00 0.00 100 1009.3
20260504212901 25 158 9.7 20.9 0.00 0.00 0.00 100 1009.3
20260504212800 26 151 9.7 20.9 0.00 0.00 0.00 100 1009.3
20260504212702 26 162 6.4 16.1 0.00 0.00 0.00 100 1009.3
20260504212601 26 168 4.8 16.1 0.00 0.00 0.00 100 1009.3
20260504212501 26 130 4.8 16.1 0.00 0.00 0.00 100 1009.2
20260504212401 26 127 4.8 17.7 0.00 0.00 0.00 100 1009.2
20260504212300 26 157 4.8 17.7 0.00 0.00 0.00 100 1009.3
20260504212201 26 99 6.4 17.7 0.00 0.00 0.00 100 1009.4
20260504212101 26 125 6.4 17.7 0.00 0.00 0.00 100 1009.4
20260504212001 26 157 8.0 17.7 0.00 0.00 0.00 100 1009.3
20260504211902 26 144 8.0 17.7 0.00 0.00 0.00 100 1009.4
20260504211800 26 145 8.0 17.7 0.00 0.00 0.00 100 1009.5
20260504211701 26 168 9.7 17.7 0.00 0.00 0.00 100 1009.4
20260504211549 26 149 9.7 17.7 0.00 0.00 0.00 100 1009.4
20260504211433 26 138 6.4 16.1 0.00 0.00 0.00 100 1009.4
20260504211330 26 83 6.4 16.1 0.00 0.00 0.00 100 1009.4
20260504211232 26 114 6.4 16.1 0.00 0.00 0.00 100 1009.4
20260504211130 26 144 4.8 16.1 0.00 0.00 0.00 100 1009.3
20260504211032 27 164 6.4 16.1 0.00 0.00 0.00 100 1009.3
20260504210932 27 107 6.4 16.1 0.00 0.00 0.00 100 1009.4
20260504210832 27 199 4.8 14.5 0.00 0.00 0.00 100 1009.4
20260504210731 27 148 4.8 14.5 0.00 0.00 0.00 100 1009.4
20260504210632 26 94 6.4 14.5 0.00 0.00 0.00 100 1009.5
20260504210528 26 130 6.4 14.5 0.00 0.00 0.00 100 1009.5
20260504210409 26 89 3.2 9.7 0.00 0.00 0.00 100 1009.5
20260504210305 26 121 1.6 9.7 0.00 0.00 0.00 100 1009.6
20260504210204 27 159 1.6 9.7 0.00 0.00 0.00 100 1009.7
20260504210002 27 161 6.4 11.3 0.00 0.00 0.00 100 1009.7
20260504205903 27 155 4.8 11.3 0.00 0.00 0.00 100 1009.7
20260504205802 27 149 3.2 11.3 0.00 0.00 0.00 100 1009.7
20260504205702 27 93 4.8 11.3 0.00 0.00 0.00 100 1009.7
20260504205603 27 162 3.2 11.3 0.00 0.00 0.00 100 1009.8
20260504205501 27 134 6.4 11.3 0.00 0.00 0.00 100 1009.8
20260504205402 27 145 6.4 11.3 0.00 0.00 0.00 100 1009.8
20260504205304 27 133 6.4 19.3 0.00 0.00 0.00 100 1009.7
20260504205202 27 134 8.0 19.3 0.00 0.00 0.00 100 1009.8
20260504205102 27 96 6.4 19.3 0.00 0.00 0.00 100 1009.7
20260504205004 27 147 4.8 19.3 0.00 0.00 0.00 100 1009.8
20260504204902 27 135 6.4 19.3 0.00 0.00 0.00 100 1009.8
20260504204804 27 104 6.4 19.3 0.00 0.00 0.00 100 1009.7
20260504204704 27 141 4.8 19.3 0.00 0.00 0.00 100 1009.7
20260504204601 27 79 4.8 19.3 0.00 0.00 0.00 100 1009.6
20260504204502 27 107 9.7 19.3 0.00 0.00 0.00 100 1009.6
20260504204403 27 106 9.7 19.3 0.00 0.00 0.00 100 1009.6
20260504204303 27 162 3.2 9.7 0.00 0.00 0.00 100 1009.7
20260504204203 27 94 4.8 14.5 0.00 0.00 0.00 100 1009.7
20260504204102 27 145 6.4 14.5 0.00 0.00 0.00 100 1009.8
20260504204004 27 175 6.4 14.5 0.00 0.00 0.00 100 1009.8
20260504203902 26 128 6.4 14.5 0.00 0.00 0.00 100 1009.9
20260504203802 26 120 4.8 14.5 0.00 0.00 0.00 100 1009.8
20260504203702 26 141 3.2 14.5 0.00 0.00 0.00 100 1009.9
20260504203603 27 155 4.8 14.5 0.00 0.00 0.00 100 1010.0
20260504203502 27 149 6.4 14.5 0.00 0.00 0.00 100 1010.0
20260504203401 27 152 6.4 14.5 0.00 0.00 0.00 100 1010.0
20260504203303 27 155 8.0 14.5 0.00 0.00 0.00 100 1009.9
20260504203203 27 165 4.8 16.1 0.00 0.00 0.00 100 1010.0
20260504203102 27 217 6.4 16.1 0.00 0.00 0.00 100 1010.0
20260504203005 27 79 4.8 16.1 0.00 0.00 0.00 100 1009.9
20260504202902 27 138 4.8 16.1 0.00 0.00 0.00 100 1010.0
20260504202803 27 147 6.4 16.1 0.00 0.00 0.00 100 1009.9
20260504202704 27 162 6.4 16.1 0.00 0.00 0.00 100 1009.9
20260504202603 27 133 4.8 19.3 0.00 0.00 0.00 100 1009.9
20260504202502 27 127 4.8 19.3 0.00 0.00 0.00 100 1010.0
20260504202403 27 137 6.4 19.3 0.00 0.00 0.00 100 1009.9
20260504202304 26 165 6.4 19.3 0.00 0.00 0.00 100 1010.0
20260504202202 26 166 6.4 19.3 0.00 0.00 0.00 100 1010.0
20260504202102 26 118 8.0 19.3 0.00 0.00 0.00 100 1010.0
20260504202003 26 158 8.0 19.3 0.00 0.00 0.00 100 1010.1
20260504201902 27 145 6.4 19.3 0.00 0.00 0.00 100 1010.1
20260504201802 27 147 8.0 19.3 0.00 0.00 0.00 100 1010.0
20260504201704 27 128 8.0 19.3 0.00 0.00 0.00 100 1010.1
20260504201602 26 151 4.8 17.7 0.00 0.00 0.00 100 1010.1
20260504201503 26 117 3.2 17.7 0.00 0.00 0.00 100 1010.0
20260504201404 26 133 4.8 17.7 0.00 0.00 0.00 100 1010.0
20260504201303 26 148 6.4 17.7 0.00 0.00 0.00 100 1010.0
20260504201202 26 134 6.4 17.7 0.00 0.00 0.00 100 1010.2
20260504201103 26 182 6.4 17.7 0.00 0.00 0.00 100 1010.2
20260504201004 26 117 6.4 17.7 0.00 0.00 0.00 100 1010.2
20260504200902 26 128 8.0 17.7 0.00 0.00 0.00 100 1010.2
20260504200803 26 109 8.0 17.7 0.00 0.00 0.00 100 1010.3
20260504200702 26 90 6.4 17.7 0.00 0.00 0.00 100 1010.2
20260504200604 26 159 8.0 17.7 0.00 0.00 0.00 100 1010.3
20260504200502 27 161 6.4 17.7 0.00 0.00 0.00 100 1010.3
20260504200402 27 161 6.4 17.7 0.00 0.00 0.00 100 1010.3
20260504200301 27 161 6.4 17.7 0.00 0.00 0.00 100 1010.4
20260504200202 27 135 6.4 17.7 0.00 0.00 0.00 100 1010.3
20260504200103 27 109 6.4 16.1 0.00 0.00 0.00 100 1010.4
20260504200002 27 120 6.4 11.3 0.00 0.00 0.00 100 1010.3
20260504195901 27 214 8.0 11.3 0.00 0.00 0.00 100 1010.4
20260504195802 27 180 6.4 14.5 0.00 0.00 0.00 100 1010.5
20260504195702 27 154 4.8 14.5 0.00 0.00 0.00 100 1010.5
20260504195602 27 140 4.8 14.5 0.00 0.00 0.00 100 1010.4
20260504195503 27 117 4.8 17.7 0.00 0.00 0.00 100 1010.4
20260504195402 27 161 4.8 17.7 0.00 0.00 0.00 100 1010.4
20260504195304 27 168 4.8 17.7 0.00 0.00 0.00 100 1010.4
20260504195203 27 116 4.8 17.7 0.00 0.00 0.00 100 1010.4
20260504195101 27 123 4.8 17.7 0.00 0.00 0.00 100 1010.5
20260504195002 26 114 6.4 17.7 0.00 0.00 0.00 100 1010.5
20260504194902 26 154 8.0 17.7 0.00 0.00 0.00 100 1010.5
20260504194802 26 165 4.8 17.7 0.00 0.00 0.00 100 1010.5
20260504194702 26 157 4.8 17.7 0.00 0.00 0.00 100 1010.6
20260504194602 26 171 11.3 17.7 0.00 0.00 0.00 100 1010.6
20260504194502 26 148 8.0 19.3 0.00 0.00 0.00 100 1010.7
20260504194402 26 137 8.0 19.3 0.00 0.00 0.00 100 1010.8
20260504194302 26 127 8.0 19.3 0.00 0.00 0.00 100 1010.6
20260504194203 26 100 4.8 19.3 0.00 0.00 0.00 100 1010.8
20260504194103 27 116 4.8 19.3 0.00 0.00 0.00 100 1010.8
20260504194002 27 114 6.4 19.3 0.00 0.00 0.00 100 1010.7
20260504193903 27 154 6.4 19.3 0.00 0.00 0.00 100 1010.7
20260504193803 27 140 3.2 19.3 0.00 0.00 0.00 100 1010.8
20260504193701 27 140 8.0 19.3 0.00 0.00 0.00 100 1010.8
20260504193602 27 166 8.0 19.3 0.00 0.00 0.00 100 1010.7
20260504193503 27 171 3.2 19.3 0.00 0.00 0.00 100 1010.7
20260504193403 27 220 3.2 19.3 0.00 0.00 0.00 100 1010.6
20260504193301 27 73 4.8 19.3 0.00 0.00 0.00 100 1010.7
20260504193203 27 133 6.4 19.3 0.00 0.00 0.00 100 1010.7
20260504193100 27 154 6.4 19.3 0.00 0.00 0.00 100 1010.8
20260504192959 27 133 6.4 19.3 0.00 0.00 0.00 100 1010.8
20260504192857 27 149 4.8 11.3 0.00 0.00 0.00 100 1010.8
20260504192757 27 196 4.8 11.3 0.00 0.00 0.00 100 1010.8
20260504192658 27 118 4.8 11.3 0.00 0.00 0.00 100 1010.9
20260504192559 27 185 4.8 11.3 0.00 0.00 0.00 100 1010.9
20260504192459 27 175 4.8 11.3 0.00 0.00 0.00 100 1011.0
20260504192358 27 169 6.4 11.3 0.00 0.00 0.00 100 1011.0
20260504192257 27 151 6.4 11.3 0.00 0.00 0.00 100 1011.0
20260504192158 27 140 4.8 11.3 0.00 0.00 0.00 100 1011.0
20260504192058 27 138 4.8 11.3 0.00 0.00 0.00 100 1011.1
20260504191959 27 169 4.8 11.3 0.00 0.00 0.00 100 1011.1
20260504191859 27 180 4.8 11.3 0.00 0.00 0.00 100 1011.2
20260504191757 27 121 4.8 11.3 0.00 0.00 0.00 100 1011.1
20260504191657 27 94 4.8 11.3 0.00 0.00 0.00 100 1011.1
20260504191559 27 173 6.4 11.3 0.00 0.00 0.00 100 1011.1
20260504191458 27 206 6.4 11.3 0.00 0.00 0.00 100 1011.1
20260504191358 27 197 6.4 11.3 0.00 0.00 0.00 100 1011.1
20260504191257 27 96 6.4 11.3 0.00 0.00 0.00 100 1011.1
20260504191157 27 169 3.2 9.7 0.00 0.00 0.00 100 1011.1
20260504191057 27 125 3.2 9.7 0.00 0.00 0.00 100 1011.1
20260504190959 27 103 6.4 9.7 0.00 0.00 0.00 100 1011.1
20260504190858 27 172 4.8 9.7 0.00 0.00 0.00 100 1011.2
20260504190758 27 154 3.2 9.7 0.00 0.00 0.00 100 1011.1
20260504190657 27 140 3.2 9.7 0.00 0.00 0.00 100 1011.2
20260504190559 27 130 3.2 9.7 0.00 0.00 0.00 100 1011.1
20260504190457 27 124 6.4 9.7 0.00 0.00 0.00 100 1011.2
20260504190358 27 114 6.4 9.7 0.00 0.00 0.00 100 1011.2
20260504190259 27 154 6.4 9.7 0.00 0.00 0.00 100 1011.2
20260504190158 26 85 6.4 16.1 0.00 0.00 0.00 100 1011.1
20260504190059 26 85 6.4 16.1 0.00 0.00 0.00 100 1011.2
20260504185932 26 85 6.4 16.1 0.00 0.00 0.00 100 1011.2
20260504185832 26 93 9.7 16.1 0.00 0.00 0.00 100 1011.2
20260504185732 26 175 8.0 19.3 0.00 0.00 0.00 100 1011.2
20260504185632 26 175 8.0 19.3 0.00 0.00 0.00 100 1011.2
20260504185533 26 175 8.0 19.3 0.00 0.00 0.00 100 1011.2
20260504185432 26 175 8.0 19.3 0.00 0.00 0.00 100 1011.2
20260504185332 26 175 8.0 19.3 0.00 0.00 0.00 100 1011.3
20260504185231 26 240 8.0 19.3 0.00 0.00 0.00 100 1011.3
20260504185132 26 214 8.0 19.3 0.00 0.00 0.00 100 1011.3
20260504185031 26 165 8.0 19.3 0.00 0.00 0.00 100 1011.3
20260504184930 26 182 8.0 19.3 0.00 0.00 0.00 100 1011.3
20260504184832 26 206 8.0 19.3 0.00 0.00 0.00 100 1011.3
20260504184732 27 158 4.8 17.7 0.00 0.00 0.00 100 1011.3
20260504184628 27 161 3.2 8.0 0.00 0.00 0.00 100 1011.2
20260504184525 27 154 3.2 8.0 0.00 0.00 0.00 100 1011.2
20260504184421 27 158 3.2 8.0 0.00 0.00 0.00 100 1011.3
20260504184320 27 159 4.8 8.0 0.00 0.00 0.00 100 1011.3
20260504184216 27 165 4.8 8.0 0.00 0.00 0.00 100 1011.3
20260504184104 26 144 4.8 8.0 0.00 0.00 0.00 100 1011.4
20260504184004 26 148 4.8 8.0 0.00 0.00 0.00 100 1011.3
20260504183902 26 162 4.8 8.0 0.00 0.00 0.00 100 1011.4
20260504183802 26 183 6.4 8.0 0.00 0.00 0.00 100 1011.3
20260504183702 26 210 4.8 8.0 0.00 0.00 0.00 100 1011.2
20260504183604 26 169 3.2 8.0 0.00 0.00 0.00 100 1011.3
20260504183504 26 154 3.2 11.3 0.00 0.00 0.00 100 1011.2
20260504183403 26 189 3.2 11.3 0.00 0.00 0.00 100 1011.3
20260504183304 26 161 3.2 11.3 0.00 0.00 0.00 100 1011.3
20260504183203 27 200 3.2 11.3 0.00 0.00 0.00 100 1011.3
20260504183104 27 185 8.0 11.3 0.00 0.00 0.00 100 1011.4
20260504183004 27 185 8.0 11.3 0.00 0.00 0.00 100 1011.3
20260504182903 27 185 8.0 11.3 0.00 0.00 0.00 100 1011.4
20260504182803 27 185 8.0 11.3 0.00 0.00 0.00 100 1011.4
20260504182704 27 185 8.0 11.3 0.00 0.00 0.00 100 1011.3
20260504182603 27 188 8.0 11.3 0.00 0.00 0.00 100 1011.3
20260504182503 27 178 6.4 11.3 0.00 0.00 0.00 100 1011.5
20260504182403 27 219 6.4 11.3 0.00 0.00 0.00 99 1011.4
20260504182304 27 140 4.8 11.3 0.00 0.00 0.00 100 1011.5
20260504182203 27 169 3.2 11.3 0.00 0.00 0.00 100 1011.6
20260504182103 27 159 3.2 11.3 0.00 0.00 0.00 98 1011.5
20260504182003 27 214 4.8 11.3 0.00 0.00 0.00 98 1011.5
20260504181903 27 233 4.8 11.3 0.00 0.00 0.00 87 1011.5
20260504181804 27 158 4.8 14.5 0.00 0.00 0.00 87 1011.6
20260504181703 27 169 6.4 14.5 0.00 0.00 0.00 86 1011.7
20260504181604 27 110 3.2 16.1 0.00 0.00 0.00 86 1011.6
20260504181504 27 169 3.2 16.1 0.00 0.00 0.00 86 1011.6
20260504181403 27 159 3.2 16.1 0.00 0.00 0.00 86 1011.6
20260504181302 27 137 6.4 16.1 0.00 0.00 0.00 91 1011.5
20260504181203 27 168 6.4 16.1 0.00 0.00 0.00 91 1011.6
20260504181103 27 168 4.8 16.1 0.00 0.00 0.00 90 1011.6
20260504181004 27 161 6.4 16.1 0.00 0.00 0.00 88 1011.6
20260504180904 26 199 8.0 16.1 0.00 0.00 0.00 88 1011.6
20260504180804 26 200 8.0 16.1 0.00 0.00 0.00 88 1011.7
20260504180701 26 127 4.8 16.1 0.00 0.00 0.00 94 1011.7
20260504180603 26 152 1.6 16.1 0.00 0.00 0.00 97 1011.7
20260504180505 26 262 3.2 16.1 0.00 0.00 0.00 97 1011.6
20260504180358 26 157 3.2 17.7 0.00 0.00 0.00 98 1011.8
20260504180256 26 154 3.2 17.7 0.00 0.00 0.00 89 1011.7
20260504180157 26 141 6.4 17.7 0.00 0.00 0.00 89 1011.8
20260504180056 26 151 4.8 17.7 0.00 0.00 0.00 90 1011.8
20260504175955 26 135 4.8 17.7 0.00 0.00 0.00 90 1011.8
20260504175856 26 188 4.8 17.7 0.00 0.00 0.00 84 1011.8
20260504175755 26 133 8.0 17.7 0.00 0.00 0.00 84 1011.8
20260504175656 26 220 9.7 17.7 0.00 0.00 0.00 89 1011.8
20260504175556 26 179 9.7 17.7 0.00 0.00 0.00 89 1011.8
20260504175455 26 162 11.3 24.1 0.00 0.00 0.00 90 1011.7
20260504175356 26 144 11.3 24.1 0.00 0.00 0.00 98 1011.7
20260504175255 26 219 11.3 24.1 0.00 0.00 0.00 98 1011.8
20260504175156 26 221 6.4 24.1 0.00 0.00 0.00 98 1011.8
20260504175055 26 157 4.8 24.1 0.00 0.00 0.00 98 1011.9
20260504174955 26 185 3.2 24.1 0.00 0.00 0.00 95 1011.9
20260504174857 26 162 4.8 24.1 0.00 0.00 0.00 95 1012.0
20260504174756 26 189 6.4 24.1 0.00 0.00 0.00 94 1011.9
20260504174656 26 180 8.0 24.1 0.00 0.00 0.00 92 1012.0
20260504174557 26 148 8.0 24.1 0.00 0.00 0.00 92 1011.9
20260504174456 26 159 8.0 20.9 0.00 0.00 0.00 93 1012.0
20260504174354 26 157 8.0 20.9 0.00 0.00 0.00 93 1011.9
20260504174256 26 255 8.0 20.9 0.00 0.00 0.00 93 1012.0
20260504174156 26 220 12.9 20.9 0.00 0.00 0.00 93 1012.0
20260504174057 26 212 14.5 20.9 0.00 0.00 0.00 99 1012.0
20260504173957 26 207 9.7 19.3 0.00 0.00 0.00 99 1012.0
20260504173856 26 157 8.0 14.5 0.00 0.00 0.00 99 1012.0
20260504173754 26 111 8.0 14.5 0.00 0.00 0.00 99 1012.0
20260504173656 26 166 4.8 14.5 0.00 0.00 0.00 100 1012.1
20260504173557 26 135 3.2 14.5 0.00 0.00 0.00 95 1012.0
20260504173455 26 138 4.8 22.5 0.00 0.00 0.00 95 1012.0
20260504173356 26 186 4.8 22.5 0.00 0.00 0.00 95 1012.0
20260504173256 26 164 4.8 22.5 0.00 0.00 0.00 95 1012.0
20260504173154 26 158 4.8 22.5 0.00 0.00 0.00 95 1012.1
20260504173057 26 138 6.4 22.5 0.00 0.00 0.00 97 1012.0
20260504172956 26 180 8.0 22.5 0.00 0.00 0.00 97 1012.1
20260504172854 26 226 6.4 22.5 0.00 0.00 0.00 100 1012.0
20260504172755 26 207 4.8 22.5 0.00 0.00 0.00 100 1012.2
20260504172656 26 183 8.0 22.5 0.00 0.00 0.00 98 1012.1
20260504172557 26 127 8.0 22.5 0.00 0.00 0.00 98 1012.2
20260504172455 26 176 8.0 19.3 0.00 0.00 0.00 98 1012.1
20260504172355 26 189 9.7 19.3 0.00 0.00 0.00 98 1012.2
20260504172254 26 195 9.7 19.3 0.00 0.00 0.00 97 1012.3
20260504172154 26 188 9.7 19.3 0.00 0.00 0.00 100 1012.3
20260504172055 26 151 9.7 19.3 0.00 0.00 0.00 100 1012.3
20260504171956 25 258 6.4 19.3 0.00 0.00 0.00 100 1012.4
20260504171856 25 189 6.4 19.3 0.00 0.00 0.00 100 1012.4
20260504171755 25 190 9.7 19.3 0.00 0.00 0.00 100 1012.3
20260504171655 25 165 9.7 19.3 0.00 0.00 0.00 100 1012.2
20260504171556 25 169 9.7 19.3 0.00 0.00 0.00 100 1012.4
20260504171455 25 166 8.0 19.3 0.00 0.00 0.00 100 1012.3
20260504171355 25 159 8.0 17.7 0.00 0.00 0.00 100 1012.4
20260504171255 26 195 9.7 17.7 0.00 0.00 0.00 100 1012.3
20260504171156 26 224 9.7 19.3 0.00 0.00 0.00 100 1012.5
20260504171056 26 207 6.4 19.3 0.00 0.00 0.00 100 1012.4
20260504170956 26 173 9.7 19.3 0.00 0.00 0.00 100 1012.5
20260504170854 26 207 8.0 19.3 0.00 0.00 0.00 100 1012.5
20260504170754 26 250 4.8 19.3 0.00 0.00 0.00 100 1012.4
20260504170655 26 149 8.0 19.3 0.00 0.00 0.00 100 1012.5
20260504170555 26 155 9.7 19.3 0.00 0.00 0.00 100 1012.5
20260504170455 26 188 9.7 19.3 0.00 0.00 0.00 100 1012.4
20260504170355 26 110 11.3 19.3 0.00 0.00 0.00 100 1012.5
20260504170254 26 120 9.7 19.3 0.00 0.00 0.00 100 1012.5
20260504170155 26 151 6.4 11.3 0.00 0.00 0.00 100 1012.6
20260504160353 24 190 9.7 22.5 0.00 0.00 0.00 100 1013.3
20260504160253 24 176 9.7 22.5 0.00 0.00 0.00 100 1013.3
20260504160153 24 209 6.4 20.9 0.00 0.00 0.00 100 1013.3
20260504151052 23 169 6.4 14.5 0.00 0.00 0.00 100 1013.3
20260504150953 23 212 8.0 14.5 0.00 0.00 0.00 100 1013.4
20260504150854 23 334 8.0 16.1 0.00 0.00 0.00 100 1013.4
20260504150751 23 157 6.4 16.1 0.00 0.00 0.00 100 1013.4
20260504150651 22 173 4.8 16.1 0.00 0.00 0.00 100 1013.4
20260504150553 22 173 6.4 16.1 0.00 0.00 0.00 100 1013.3
20260504150451 22 204 8.0 16.1 0.00 0.00 0.00 100 1013.4
20260504150353 22 210 8.0 16.1 0.00 0.00 0.00 100 1013.4
20260504150252 22 221 8.0 16.1 0.00 0.00 0.00 100 1013.4
20260504150152 22 169 9.7 16.1 0.00 0.00 0.00 100 1013.4
20260504141250 20 135 4.8 9.7 0.00 0.00 0.00 100 1013.3
20260504141152 20 148 3.2 8.0 0.00 0.00 0.00 100 1013.3
20260504141050 20 144 1.6 8.0 0.00 0.00 0.00 100 1013.3
20260504140950 20 152 0.0 8.0 0.00 0.00 0.00 100 1013.4
20260504140852 19 144 0.0 8.0 0.00 0.00 0.00 100 1013.3
20260504140751 19 144 0.0 8.0 0.00 0.00 0.00 100 1013.4
20260504140649 19 144 1.6 8.0 0.00 0.00 0.00 100 1013.4
20260504140550 19 144 3.2 8.0 0.00 0.00 0.00 100 1013.3
20260504140451 19 148 6.4 8.0 0.00 0.00 0.00 100 1013.3
20260504140350 19 158 4.8 8.0 0.00 0.00 0.00 100 1013.4
20260504140251 19 162 3.2 8.0 0.00 0.00 0.00 100 1013.4
20260504140149 19 154 1.6 4.8 0.00 0.00 0.00 100 1013.4
20260504130745 15 155 0.0 0.0 0.00 0.00 0.00 100 1013.6
20260504130644 15 155 0.0 0.0 0.00 0.00 0.00 100 1013.4
20260504130544 15 155 0.0 0.0 0.00 0.00 0.00 100 1013.5
20260504130445 14 155 0.0 0.0 0.00 0.00 0.00 100 1013.5
20260504130345 14 155 0.0 0.0 0.00 0.00 0.00 100 1013.4
20260504130243 14 155 0.0 0.0 0.00 0.00 0.00 100 1013.4
20260504130144 14 155 0.0 0.0 0.00 0.00 0.00 100 1013.5